Location: Arrodets-la-Barthe
(43.0306°N, 0.2829°E)
Time: 21:28:16
(UTC+00:00)

DX 1 - Visible Passes

Search period start: 31 March 2023 00:00
Search period end: 10 April 2023 00:00
Orbit: 614 x 627 km, 98.4° (Epoch: 31 March)

Date Brightness Start Highest point End Pass type
(mag) Time Alt. Az. Time Alt. Az. Time Alt. Az.
05 Apr ? 22:40:50 10° N 22:41:04 11° N 22:41:04 11° N visible
06 Apr ? 22:58:26 10° N 22:58:50 12° N 22:58:50 12° N visible
07 Apr ? 23:16:11 10° N 23:16:36 12° NNW 23:16:36 12° NNW visible
08 Apr ? 23:34:07 10° NNW 23:34:21 11° NNW 23:34:21 11° NNW visible
09 Apr ? 22:14:30 10° NNE 22:14:56 13° NNE 22:14:56 13° NNE visible
